Home   Weather   Ciudad del Este   Past weeks

Flag for Paraguay Past Weather in Ciudad del Este, Paraguay — Yesterday and Last 2 Weeks

Now
72 °F

Strong thunderstorms. Fog.


Feels Like: 65 °F
Forecast: 53 / 69 °F
Wind: 9 mph from West

Location: Foz Do Iguacu Aeroporto

Current Time: Apr 26, 2017 at 12:14:13 am

Latest Report: Apr 25, 2017 at 11:00 pm


Visibility: 1 mi

Pressure: 29.68 "Hg

Humidity: 100%

Dew Point: 72 °F

Location of Ciudad del EsteLocation

Past Weather in Ciudad del Este — Graph

°F

Ciudad del Este Temperature Yesterday

Maximum temperature yesterday: 81 °F (at 2:00 pm)
Minimum temperature yesterday: 68 °F (at 12:00 am)
Average temperature yesterday: 75 °F

High & Low Weather Summary for the Past Weeks

 TemperatureHumidityPressure
High81 °F (Apr 19, 12:00 pm)100% (Apr 20, 3:00 am)30.12 "Hg (Apr 20, 3:00 am)
Low54 °F (Apr 23, 6:00 am)54% (Apr 19, 12:00 pm)29.59 "Hg (Apr 25, 6:30 pm)
Average70 °F85%29.92 "Hg
* Reported Apr 11 11:00 am — Apr 25 11:00 pm, Ciudad del Este, Weather by CustomWeather, © 2017

Note: Actual official high and low records may vary slightly from our data, if they occured in-between our weather recording intervals... More about our weather records

Advertising

Ciudad del Este Weather History for the Previous 24 Hours

Scroll right to see more
 ConditionsComfort  
Time TempWeatherWind HumidityBarometerVisibility
11:00 pm
Tue, Apr 25
72 °FStrong thunderstorms. Fog.9 mph100%29.68 "Hg1 mi
10:24 pm70 °FStrong thunderstorms. Fog.16 mph100%29.68 "Hg1 mi
10:00 pm77 °FThunderstorms. Partly cloudy.7 mph83%N/AN/A
9:00 pm73 °FThunderstorms. Partly cloudy.13 mph89%29.59 "HgN/A
8:00 pm75 °FThunderstorms. Passing clouds.9 mph83%29.59 "HgN/A
7:00 pm77 °FThundershowers. Passing clouds.12 mph74%29.62 "HgN/A
6:30 pm77 °FThundershowers. Passing clouds.13 mph74%29.59 "HgN/A
6:00 pm73 °FClear.8 mph89%29.62 "Hg10 mi
5:00 pm79 °FSunny.8 mph74%29.62 "Hg10 mi
4:00 pm81 °FSunny.8 mph70%29.65 "Hg10 mi
3:00 pm81 °FSunny.15 mph66%29.65 "Hg10 mi
2:00 pm81 °FPartly sunny.13 mph66%29.68 "HgN/A
1:00 pm77 °FPartly sunny.9 mph69%29.71 "HgN/A
12:00 pm75 °FBroken clouds.13 mph74%29.74 "HgN/A
11:00 am77 °FPartly sunny.18 mph65%29.77 "HgN/A
10:00 am77 °FPartly sunny.14 mph69%29.77 "HgN/A
9:00 am77 °FSunny.17 mph69%29.77 "Hg10 mi
8:00 am75 °FSunny.13 mph69%29.77 "Hg10 mi
7:00 am72 °FSunny.12 mph78%29.74 "Hg10 mi
6:00 am72 °FSunny.5 mph78%29.77 "Hg10 mi
5:00 am72 °FClear.6 mph73%29.77 "Hg10 mi
4:00 am72 °FClear.5 mph73%29.77 "Hg10 mi
3:00 am72 °FClear.6 mph78%29.77 "Hg10 mi
2:00 am72 °FClear.5 mph78%29.80 "Hg10 mi
1:00 am70 °FClear.6 mph83%29.80 "Hg10 mi
12:00 am68 °FClear.5 mph94%29.86 "Hg10 mi
Weather by CustomWeather, © 2017

See weather overviewHow to use our weather pages